Overview Statistics Trail Chart Weather Telemetry Raw packets
 

This is the latest recevied weather packets stored in our database for station/object KB0BS-13. If no packets are shown the sender has not sent any weather packets the latest 10 day(s).

<< 32 33 34 35 36 37 38 >>
Time Temp. Humidity Pressure Rain* Wind** Luminosity Snow
1777471398 5° C 84% 1017.1 hPa 0 mm - 438 W/m² -
1777471095 4.44° C 88% 1016.9 hPa 0 mm - 421 W/m² -
1777470792 3.89° C 89% 1017.2 hPa 0 mm - 445 W/m² -
1777470489 3.89° C 88% 1017.1 hPa 0 mm - 261 W/m² -
1777470184 3.89° C 90% 1016.8 hPa 0 mm - 301 W/m² -
1777469880 3.89° C 92% 1017.1 hPa 0 mm - 254 W/m² -
1777469576 3.89° C 91% 1016.9 hPa 0 mm - 339 W/m² -
1777469271 3.33° C 93% 1016.8 hPa 0 mm - 227 W/m² -
1777468967 2.78° C 94% 1016.7 hPa 0 mm - 233 W/m² -
1777468663 2.78° C 94% 1016.9 hPa 0 mm - 171 W/m² -
1777468360 2.78° C 94% 1016.8 hPa 0 mm - 272 W/m² -
1777468055 2.78° C 95% 1016.8 hPa 0 mm - 198 W/m² -
1777467751 2.22° C 96% 1016.9 hPa 0 mm - 213 W/m² -
1777467447 2.22° C 96% 1016.8 hPa 0 mm - 185 W/m² -
1777467142 2.22° C 97% 1016.7 hPa 0 mm - 161 W/m² -
1777466840 1.67° C 97% 1016.8 hPa 0 mm - 128 W/m² -
1777466538 2.22° C 97% 1016.6 hPa 0 mm - 103 W/m² -
1777466234 1.67° C 98% 1016.9 hPa 0 mm - 95 W/m² -
1777465930 1.67° C 98% 1016.9 hPa 0 mm - 116 W/m² -
1777465627 1.67° C 98% 1016.9 hPa 0 mm - 120 W/m² -
1777465323 1.11° C 98% 1016.7 hPa 0 mm - 113 W/m² -
1777465021 1.11° C 98% 1016.7 hPa 0 mm - 113 W/m² -
1777464716 1.11° C 99% 1016.6 hPa 0 mm - 99 W/m² -
1777464414 0.56° C 99% 1016.7 hPa 0 mm - 81 W/m² -
1777464110 0.56° C 99% 1016.7 hPa 0 mm - 82 W/m² -

* Rain latest hour (hover to see other rain measurements)
** Current wind speed in m/s (hover to see current wind gust speed)